Dewpoint
64 58 61 53 46 44 41 40 44 45 45 49 50 52 55 56 54 50 53 62 63 64 66 68 69 69 68 69 69 70 70 70 70 69 67 66 65 64 64 62 62 62 61 61 62 62 63 63 62
62 56 54 49 41 42 42 44 46 46 48 52 53 54 54 54 57 54 53 59 60 62 66 68 68 69 67 67 68 69 69 69 69 69 68 66 65 63 63 62 62 62 62 62 62 61 61 61 60
58 54 48 46 42 42 45 47 47 47 49 50 52 55 55 55 54 55 55 57 57 61 67 67 68 68 67 66 67 67 68 68 67 67 66 66 65 65 66 63 62 62 62 62 62 60 60 62 62
51 46 45 41 42 44 43 48 49 49 50 51 54 53 57 59 57 56 54 54 61 66 67 68 68 67 66 66 65 65 66 66 66 65 64 63 63 63 63 64 65 63 61 60 60 61 62 63 63
48 45 42 42 44 43 43 52 53 48 49 51 53 53 56 60 56 56 53 58 65 66 67 67 68 67 67 65 65 65 65 64 65 63 62 62 63 62 62 61 60 60 60 60 61 61 62 62 63
45 43 39 39 43 43 42 50 49 48 50 52 54 55 58 60 56 55 53 62 65 65 66 66 65 66 67 67 66 65 65 65 65 64 64 64 63 63 62 61 61 61 60 60 60 61 62 62 63
44 42 38 41 43 46 45 51 46 48 48 48 55 55 58 59 59 54 55 59 64 65 65 66 66 65 64 65 65 66 66 65 65 65 65 65 65 63 62 63 61 61 61 61 61 61 62 62 63
46 43 39 38 43 46 44 46 49 50 50 52 53 54 55 59 60 57 54 60 60 63 64 64 65 65 64 63 63 63 64 64 64 63 62 62 62 62 61 60 62 61 61 62 62 62 63 63 63
47 42 38 39 41 45 44 42 47 49 51 55 56 56 57 60 61 55 52 58 61 61 61 64 64 64 63 62 61 61 62 62 62 61 59 59 59 60 59 60 61 61 61 61 62 63 64 63 62
44 43 40 39 38 40 41 42 44 47 51 55 57 59 59 60 60 54 51 52 54 57 61 62 60 63 62 59 61 61 61 61 61 60 60 60 61 60 60 59 60 61 61 62 63 64 63 61 59
44 42 40 40 39 39 39 41 43 44 45 53 55 57 59 59 59 53 53 52 53 54 57 60 60 59 57 57 60 61 62 62 62 61 61 61 61 61 60 61 60 60 59 60 61 60 61 59 59
42 43 42 42 41 40 39 40 41 42 45 49 58 58 57 58 58 53 53 53 54 55 55 57 59 59 58 59 59 61 61 61 61 61 61 60 60 60 60 59 60 60 60 59 60 61 60 60 61
43 43 43 40 41 40 41 39 40 44 55 58 58 58 57 57 56 53 55 56 57 56 57 57 58 58 59 60 60 60 61 61 60 61 60 60 59 60 60 60 61 61 62 61 62 63 63 62 62
44 44 43 40 39 41 42 41 39 46 57 57 57 56 57 56 54 53 55 56 57 58 59 60 60 59 59 60 60 60 60 60 60 59 60 59 60 60 61 62 62 63 64 63 63 62 61 61 61
48 43 42 43 40 41 42 40 39 46 55 56 57 57 57 56 53 52 56 56 58 59 59 60 61 61 60 59 60 60 60 60 59 60 60 61 62 63 63 64 64 63 63 61 61 60 58 57 57
47 46 41 42 42 42 41 38 41 45 50 53 56 57 57 56 54 52 55 57 58 59 60 61 61 60 59 59 59 59 59 60 62 62 58 55 55 56 60 61 59 58 57 56 55 54 54 54 54
46 41 41 40 42 42 40 39 41 42 44 49 55 56 56 56 56 57 55 57 58 59 60 60 60 59 58 58 58 59 59 55 52 52 52 51 52 52 53 54 53 54 54 53 53 52 53 52 51
40 42 41 39 42 41 40 39 41 42 44 44 53 55 56 56 56 57 56 57 58 59 59 59 59 59 58 58 59 57 53 51 50 49 48 48 48 49 51 50 50 52 51 50 50 50 51 51 49
41 41 40 41 47 42 41 40 40 41 40 39 50 54 55 57 57 57 58 58 59 59 60 59 59 59 59 59 60 57 53 50 48 45 44 44 44 45 46 46 46 47 46 45 45 47 47 49 47
44 41 40 45 46 43 43 41 41 41 40 40 41 53 54 56 53 51 49 48 48 48 49 49 51 54 59 60 56 52 50 47 43 38 37 37 38 38 37 40 41 41 42 40 40 41 44 46 45
44 42 41 41 44 45 43 41 42 42 41 40 43 51 56 54 50 48 45 44 42 41 42 42 44 50 53 52 51 49 49 46 39 33 32 34 34 35 35 35 36 36 37 38 37 38 37 40 41
40 45 43 43 41 37 43 35 40 41 41 39 43 54 52 49 48 45 43 42 40 38 37 37 38 44 47 48 48 47 43 38 33 32 32 32 32 32 33 33 33 33 34 36 36 36 36 37 36
42 45 43 43 40 40 41 37 38 41 41 39 49 48 48 49 47 44 41 38 35 36 34 34 34 36 37 41 42 40 36 34 31 32 33 33 32 31 31 31 30 30 32 35 35 33 34 35 34
45 42 40 40 38 32 38 37 36 40 41 40 47 45 43 39 38 37 35 34 33 33 33 35 35 33 34 33 32 31 31 31 34 35 35 34 33 31 31 30 30 29 31 33 33 32 32 32 32
40 38 30 29 30 30 38 37 37 36 39 45 43 41 38 37 33 32 31 30 31 31 34 37 38 38 40 40 40 39 39 39 38 37 37 35 34 33 31 28 28 28 29 31 31 31 31 31 30
38 37 31 26 28 31 35 33 34 35 41 44 43 38 34 33 33 33 33 34 36 39 40 40 40 39 40 40 39 39 39 38 38 37 35 33 28 25 26 27 27 28 29 29 30 30 29 29 30
38 36 37 30 25 26 32 35 35 37 38 39 37 35 33 33 34 34 36 39 40 40 40 39 39 39 39 38 38 37 36 34 33 29 25 24 24 22 26 26 26 27 28 28 28 28 28 28 29
37 38 33 32 19 22 30 30 31 34 36 38 37 32 32 34 35 38 40 40 39 39 39 39 39 37 36 32 28 25 24 23 23 23 23 23 23 23 24 24 25 26 27 26 26 27 27 26 26
36 35 36 34 29 22 26 28 24 33 35 36 35 32 34 36 38 39 39 38 37 35 35 34 31 26 24 24 24 23 22 21 21 21 22 22 22 23 23 24 25 25 25 25 25 24 24 24 23
37 36 36 29 29 28 26 25 27 29 35 36 33 32 36 38 39 38 37 35 34 32 29 25 23 23 23 23 22 21 20 20 20 20 20 22 21 22 22 23 24 24 24 24 24 23 23 23 21
Lifted_Index
1 0 -0 -1 -0 0 0 0 0 0 0 0 -0 -0 0 0 0 1 2 2 2 2 1 -0 -0 -0 -0 -0 -0 -1 -1 -1 -0 0 1 2 3 4 4 5 6 6 6 6 6 6 6 6 6
1 1 -0 -1 -0 -0 0 0 0 0 0 -0 -0 -0 0 1 1 2 3 3 2 2 1 0 -0 0 0 1 0 -0 -0 -0 -0 0 1 2 3 4 4 5 5 5 6 6 6 6 6 6 7
2 1 0 -0 -0 -0 -0 -0 -0 -0 -0 -0 -0 0 0 1 2 3 3 3 3 2 1 0 0 1 1 1 1 1 1 0 1 1 2 2 3 3 4 4 5 5 5 6 6 6 6 6 6
2 1 0 -0 -1 -0 -0 -0 -1 -0 -0 -0 0 0 1 1 2 3 3 4 3 2 1 1 1 1 2 2 2 2 2 2 2 2 3 3 3 4 4 4 5 5 5 6 6 6 5 5 5
2 1 0 -0 -0 -0 -0 -0 -1 -1 -1 -0 -0 0 1 1 2 3 3 3 2 2 1 1 1 1 2 2 3 3 3 3 3 3 4 4 4 4 5 5 5 5 6 6 6 5 5 5 5
2 1 0 -0 -0 -0 -0 -0 -1 -1 -1 -0 -0 0 1 1 2 3 3 3 2 2 2 2 2 2 2 2 3 3 3 3 3 3 4 4 4 4 5 5 5 6 6 6 6 5 5 5 5
2 1 1 0 -0 -0 -0 -0 -1 -1 -0 -0 -0 0 1 2 2 3 3 3 3 2 2 2 2 3 3 3 3 3 3 3 3 4 4 4 4 5 5 6 6 6 6 5 5 5 5 5 5
2 1 1 0 0 -0 -0 -0 -1 -1 -1 -0 -0 0 1 2 2 3 3 3 3 3 3 3 3 3 4 4 4 4 4 4 4 5 5 5 5 5 6 6 6 6 6 5 5 5 5 5 5
1 1 1 1 0 0 0 -0 -0 -1 -1 -0 0 0 1 2 3 4 4 3 3 3 3 3 3 3 4 4 5 5 4 4 5 5 4 4 4 5 5 6 6 6 5 5 5 4 4 4 5
1 1 1 1 1 1 0 0 -0 -0 -0 -0 0 1 1 2 3 4 5 4 4 3 3 3 3 3 4 5 5 5 4 4 4 4 3 3 3 4 4 4 5 5 5 4 4 4 4 4 4
1 1 1 1 1 1 0 0 0 0 -0 0 0 1 2 2 3 4 5 5 4 4 3 3 4 4 4 5 4 4 4 3 3 3 2 3 3 3 3 3 3 3 3 3 3 3 3 3 3
1 1 1 1 1 1 1 1 1 0 0 -0 -0 1 1 2 3 3 4 4 4 4 4 4 4 4 4 4 3 3 3 3 3 2 2 2 3 3 2 2 2 2 2 2 2 2 2 2 2
1 1 1 1 1 1 1 1 1 0 -1 -1 -1 0 1 2 2 3 3 3 3 3 3 3 3 3 3 3 3 2 2 2 2 2 2 2 2 2 2 2 2 2 2 2 2 2 2 2 2
1 1 1 1 1 1 1 1 1 0 -1 -2 -1 -0 1 2 2 2 2 2 2 2 3 3 2 2 3 2 2 2 2 2 2 2 2 2 2 2 2 1 1 1 1 2 2 2 3 3 3
1 1 1 1 1 1 1 1 1 0 -1 -2 -1 -0 1 1 2 2 1 1 1 1 2 2 2 2 2 2 2 1 2 2 2 2 1 1 2 2 1 1 1 1 2 2 3 4 4 5 5
1 1 1 1 0 1 1 1 1 0 -1 -2 -2 -1 -0 0 1 1 1 1 1 1 1 1 1 1 1 1 1 1 2 2 2 2 1 1 2 2 2 1 2 2 3 4 5 6 6 6 6
1 1 1 1 1 1 1 1 1 1 -0 -1 -2 -2 -2 -1 -0 0 1 0 0 0 0 0 1 1 1 1 2 2 1 1 2 2 2 2 2 2 2 2 3 4 6 7 8 8 8 8 8
2 1 1 1 1 1 1 0 0 1 0 -1 -2 -3 -2 -2 -1 -1 -0 -0 -0 -1 -0 -0 0 1 1 1 2 1 1 1 2 2 2 2 3 3 3 4 5 7 9 10 11 11 10 10 10
2 1 1 1 1 1 1 0 0 0 0 -0 -1 -2 -2 -2 -2 -2 -1 -1 -1 -1 -1 -1 -0 0 1 1 1 1 1 1 1 2 2 3 3 5 6 8 9 11 12 12 12 11 11 11 11
1 1 1 1 1 1 1 0 0 0 1 1 -0 -1 -2 -2 -2 -2 -2 -2 -2 -2 -1 -1 -1 -0 -0 0 0 1 1 1 1 2 2 4 6 9 10 12 12 13 13 12 12 11 10 11 13
1 1 1 2 2 2 1 1 1 1 1 1 1 -0 -1 -2 -2 -2 -2 -2 -2 -2 -2 -2 -1 -1 -1 -1 -0 0 0 1 1 2 4 7 10 12 13 13 13 13 13 12 12 12 11 12 13
1 1 1 2 1 1 1 1 1 1 1 1 1 0 -1 -1 -2 -2 -2 -2 -2 -2 -2 -1 -1 -1 -1 -1 -1 -0 0 1 3 5 8 12 13 13 13 13 13 13 13 14 14 15 15 15 14
1 1 1 1 1 1 1 1 1 1 1 1 1 1 -0 -1 -1 -2 -2 -2 -1 -1 -1 -1 -1 -1 -0 -0 0 1 2 4 7 9 11 13 13 12 11 11 12 13 15 16 17 17 17 17 16
2 1 1 1 1 1 1 1 1 1 1 2 2 1 0 -0 -1 -1 -1 -1 -1 -0 -0 0 0 0 2 3 4 5 6 8 10 11 11 11 10 10 10 11 12 14 16 17 18 18 18 18 18
2 2 1 1 0 1 1 1 1 1 1 1 1 1 0 -0 -0 -1 -1 -0 0 1 1 1 2 3 5 8 9 9 9 10 10 10 10 10 10 10 11 13 14 16 18 18 19 19 19 19 19
2 2 1 1 1 1 1 2 2 1 1 1 1 1 1 0 0 0 0 1 1 2 3 4 5 6 8 10 10 10 10 9 9 10 11 12 13 14 15 17 18 19 19 20 20 20 20 20 20
3 3 2 2 1 1 2 2 2 2 1 1 1 1 1 1 1 2 2 2 3 5 5 6 8 8 9 9 9 9 10 10 11 12 13 15 17 18 18 19 19 20 20 21 21 21 21 21 21
3 3 3 3 2 1 2 2 2 2 2 2 2 1 1 2 2 2 3 4 6 7 8 8 8 9 9 9 9 10 12 13 14 15 17 18 19 19 19 19 20 21 21 21 21 21 21 21 20
2 2 2 2 2 2 2 2 2 2 2 2 2 1 1 2 2 3 4 5 7 8 8 8 8 8 9 10 11 13 15 16 17 18 19 19 19 19 19 20 20 21 21 21 21 21 20 20 20
2 2 2 2 3 2 2 2 2 3 3 2 1 1 1 2 2 3 4 6 8 8 8 8 8 8 10 11 13 15 17 18 19 19 19 19 18 19 19 20 20 21 21 21 21 21 20 20 19